Location: Abraham Lincoln Continuation High School
(33.9711°N, 117.3662°W)
Time: 14:50:49
(UTC+00:00)

Cosmos 2298 Rocket - Pass Details

Date: 21 September 2020
Orbit: 777 x 783 km, 74.0° (Epoch: 28 October)

Event Time Altitude Azimuth Distance (km) Brightness Sun altitude
Rises 03:09:19 0° 202° (SSW) 3,254 7.4 -17.5°
Reaches altitude 10° 03:11:42 10° 205° (SSW) 2,329 6.6 -18.0°
Maximum altitude 03:16:59 69° 288° (WNW) 838 4.3 -19.1°
Drops below altitude 10° 03:22:17 10° 12° (NNE) 2,342 6.5 -20.1°
Sets 03:24:42 0° 15° (NNE) 3,273 7.3 -20.6°
